Location: Krakow
(50.0830°N, 19.9170°E)
Time: 10:38:21
(UTC+01:00)

Tiros 1 despin weight - All Passes

Search period start: 13 November 2024 00:00
Search period end: 23 November 2024 00:00
Orbit: 571 x 610 km, 48.2° (Epoch: 12 November)

Date Brightness Start Highest point End Pass type
(mag) Time Alt. Az. Time Alt. Az. Time Alt. Az.
13 Nov - 03:35:46 10° SSW 03:39:11 22° SE 03:42:34 10° E visible
13 Nov - 05:15:14 10° WSW 05:19:34 54° SSE 05:23:51 10° E visible
13 Nov - 06:55:57 10° W 07:00:20 69° S 07:04:40 10° ESE daylight
13 Nov - 08:36:55 10° W 08:41:00 39° SSW 08:45:01 10° SE daylight
13 Nov - 10:19:17 10° WSW 10:21:05 12° SW 10:22:52 10° SSW daylight
14 Nov - 03:42:40 10° SSW 03:46:33 30° SSE 03:50:25 10° E visible
14 Nov - 05:22:43 10° WSW 05:27:06 63° S 05:31:27 10° E visible
14 Nov - 07:03:33 10° W 07:07:54 63° S 07:12:12 10° ESE daylight
14 Nov - 08:44:38 10° W 08:48:25 29° SSW 08:52:10 10° SSE daylight
15 Nov - 02:11:42 10° SSE 02:13:50 13° SE 02:15:58 10° ESE visible
15 Nov - 03:49:48 10° SW 03:53:59 40° SSE 03:58:07 10° E visible
15 Nov - 05:30:14 10° W 05:34:40 69° S 05:39:01 10° E visible
15 Nov - 07:11:07 10° W 07:15:25 53° SSW 07:19:40 10° ESE daylight
15 Nov - 08:52:29 10° W 08:55:46 21° SW 08:59:01 10° SSE daylight
16 Nov - 02:17:52 10° S 02:21:05 20° SE 02:24:19 10° E visible
16 Nov - 03:57:06 10° WSW 04:01:26 51° SSE 04:05:43 10° E visible
16 Nov - 05:37:47 10° W 05:42:11 70° S 05:46:33 10° E visible
16 Nov - 07:18:43 10° W 07:22:54 42° SSW 07:27:00 10° SE daylight
16 Nov - 09:00:43 10° WSW 09:03:02 14° SW 09:05:20 10° S daylight
17 Nov - 02:24:36 10° SSW 02:28:24 28° SSE 02:32:11 10° E visible
17 Nov - 04:04:30 10° WSW 04:08:55 61° SSE 04:13:16 10° E visible
17 Nov - 05:45:19 10° W 05:49:43 65° S 05:54:03 10° ESE visible
17 Nov - 07:26:21 10° W 07:30:17 32° SSW 07:34:09 10° SE daylight
18 Nov - 00:54:05 10° SSE 00:55:41 12° SE 00:57:17 10° ESE night (unlit)
18 Nov - 02:31:38 10° SW 02:35:46 37° SSE 02:39:52 10° E visible
18 Nov - 04:11:59 10° WSW 04:16:25 68° S 04:20:48 10° E visible
18 Nov - 05:52:50 10° W 05:57:11 57° SSW 06:01:29 10° ESE visible
18 Nov - 07:34:06 10° W 07:37:36 23° SSW 07:41:02 10° SSE daylight
19 Nov - 00:59:51 10° S 01:02:52 18° SE 01:05:53 10° E night (unlit)
19 Nov - 02:38:51 10° SW 02:43:09 48° SSE 02:47:26 10° E visible
19 Nov - 04:19:28 10° W 04:23:54 70° S 04:28:17 10° E visible
19 Nov - 06:00:23 10° W 06:04:37 46° SSW 06:08:48 10° SE visible
19 Nov - 07:42:06 10° WSW 07:44:49 16° SW 07:47:31 10° S daylight
20 Nov - 01:06:26 10° SSW 01:10:07 25° SSE 01:13:48 10° E night (unlit)
20 Nov - 02:46:10 10° WSW 02:50:35 59° SSE 02:54:57 10° E visible
20 Nov - 04:26:57 10° W 04:31:22 67° S 04:35:45 10° ESE visible
20 Nov - 06:07:56 10° W 06:11:59 35° SSW 06:15:58 10° SE visible
20 Nov - 07:51:14 10° SW 07:51:58 10° SW 07:52:42 10° SW daylight
20 Nov - 23:36:52 10° SE 23:37:24 10° SE 23:37:56 10° SE night (unlit)
21 Nov - 01:13:20 10° SW 01:17:24 34° SSE 01:21:28 10° E night (unlit)
21 Nov - 02:53:34 10° WSW 02:58:01 67° S 03:02:26 10° E visible
21 Nov - 04:34:25 10° W 04:38:49 60° SSW 04:43:08 10° ESE visible
21 Nov - 06:15:35 10° W 06:19:16 26° SSW 06:22:53 10° SSE visible
21 Nov - 23:41:47 10° S 23:44:31 16° SE 23:47:15 10° ESE night (unlit)
22 Nov - 01:20:27 10° SW 01:24:44 45° SSE 01:29:00 10° E night (unlit)
22 Nov - 03:00:59 10° W 03:05:28 70° S 03:09:53 10° E visible
22 Nov - 04:41:53 10° W 04:46:12 49° SSW 04:50:27 10° SE visible
22 Nov - 06:23:26 10° W 06:26:28 18° SW 06:29:29 10° S visible
22 Nov - 23:48:09 10° SSW 23:51:41 23° SE 23:55:13 10° E night (unlit)
